Location: Melbourne
(37.8170°S, 144.9670°E)
Time: 13:12:07
(UTC+10:00)

Daily predictions for brighter satellites

Satellite Brightness Start Highest point End
(mag) Time Altitude Azimuth Time Altitude Azimuth Time Altitude Azimuth
Centaur D AC-29 3.4 18:39:02 10° NW 18:42:42 28° N 18:52:33 10° ENE
Cosmos 2221 3.4 18:45:11 10° SSE 18:49:10 31° ESE 18:53:07 10° NE
ATLAS 5 CENTAUR R/B 3.9 18:47:25 10° WSW 18:50:47 45° NW 19:01:16 10° NNE
Helios 1B rocket 3.5 18:48:48 10° N 18:52:52 51° W 18:57:00 10° SSW
ASTEX 1 3.9 18:52:45 10° NNE 18:57:19 40° ESE 19:01:58 10° S
SMAP 3.5 18:53:20 10° S 18:58:03 69° WSW 19:02:41 10° NNW
Cosmos 1437 Rocket 3.0 18:55:52 10° S 19:00:00 57° ESE 19:04:05 10° NNE
Cosmos 921 Rocket 3.0 18:56:42 10° NNW 19:00:59 88° WSW 19:05:25 10° SSE
Cosmos 2278 Rocket 2.6 18:56:39 10° N 19:01:56 42° ENE 19:07:17 10° SE
CZ-2C R/B 2.8 18:57:15 10° S 19:02:32 75° WSW 19:07:41 10° NNW
COSMOS 2406 3.5 18:58:10 10° SSW 19:04:01 79° WNW 19:09:48 10° NNE
Cosmos 405 3.1 19:01:18 10° S 19:04:52 56° E 19:08:22 10° NNE
Cosmos 2279 Rocket 4.3 19:03:05 10° S 19:09:08 47° ESE 19:15:05 10° NNE
CZ-3B DEB 4.1 19:00:28 10° W 19:09:10 29° SW 19:13:04 10° SSE
COSMOS 2487 4.2 19:09:30 10° SSE 19:12:06 18° ESE 19:13:32 15° E
Tiangong 1 3.3 19:11:45 10° W 19:14:10 20° NW 19:16:33 10° NNE
MSX 3.8 19:08:26 10° SSE 19:14:16 78° ENE 19:20:00 10° N
BREEZE-M DEB 3.2 19:13:07 10° SW 19:15:18 84° NNW 19:16:47 19° NE
Cosmos 1076 Rocket 3.7 19:11:47 10° NNE 19:16:03 51° E 19:20:22 10° SSE
Meteor 2-1 Rocket 4.2 19:12:38 10° S 19:18:14 70° E 19:23:50 10° NNE
Meteor 1-16 Rocket 4.3 19:13:17 10° S 19:18:59 82° W 19:24:27 10° N
Helios 1A 4.5 19:16:36 10° SE 19:19:20 17° E 19:19:33 16° E
FALCON 9 R/B 4.5 18:35:51 10° W 19:20:05 79° N 19:28:25 16° ENE
GP-B 4.1 19:17:25 10° NE 19:21:14 28° E 19:25:04 10° SSE
USA 234 3.3 19:14:54 10° SE 19:21:29 66° NE 19:28:01 10° NW
Cosmos 1766 Rocket 3.7 19:19:14 10° NNE 19:23:26 50° E 19:27:44 10° SSE
Cosmos 2082 Rocket 3.6 19:21:44 10° S 19:26:06 22° SE 19:28:30 17° E
Cosmos 44 Rocket 3.7 19:29:08 10° SSW 19:33:51 45° SE 19:36:37 23° ENE
Meteor 1-24 Rocket 4.0 19:29:00 10° NNW 19:34:17 69° W 19:39:44 10° S
In-Cosmos 22 4.2 19:30:04 10° N 19:35:32 59° E 19:40:55 10° SSE
Lacrosse 5 rocket 2.7 19:32:37 10° SSW 19:36:04 25° SE 19:37:34 21° ESE
Cosmos 1378 4.1 19:34:55 10° NNW 19:38:36 51° W 19:42:23 10° S
Cosmos 1844 Rocket 4.0 19:33:51 10° NW 19:39:13 43° WSW 19:44:40 10° S
Cosmos 1328 Rocket 4.2 19:38:24 10° SSE 19:42:24 33° ESE 19:43:26 29° ENE
USA 229 4.5 19:36:14 10° SW 19:43:03 52° WNW 19:49:44 10° N
IDEFIX/ARIANE 42P 4.4 19:39:35 10° S 19:44:17 34° WSW 19:48:56 10° NW
Timation 2 Rocket 4.5 19:37:57 10° SSW 19:44:18 43° ESE 19:47:32 25° ENE
Resurs 1-3 4.4 19:40:29 10° SE 19:44:24 29° E 19:44:33 29° E
DELTA 2 R/B (1) 4.4 19:43:37 10° W 19:48:55 43° NNW 19:52:09 22° NNE
Cosmos 2056 Rocket 3.4 19:43:55 10° NNW 19:49:14 82° ENE 19:54:32 10° SSE
Resurs 01 Rocket 1.8 19:49:09 10° SSE 19:53:33 48° E 19:57:02 15° N
ALOS 3.4 19:49:36 10° SE 19:52:37 26° ESE 19:52:37 26° ESE
Nadezhda 4 Rocket 3.9 19:47:45 10° N 19:53:47 62° E 19:59:53 10° SSE
Cosmos 1408 Rocket 3.9 19:49:31 10° NNW 19:53:50 65° W 19:58:13 10° S
NOSS 3-1 (C) 3.3 19:47:29 10° SSW 19:53:55 74° SE 19:57:06 28° NE
Cosmos 1500 Rocket 4.0 19:55:07 38° ENE 19:55:31 39° E 19:59:44 10° SSE
NOAA 12 4.0 19:55:17 10° SSE 20:00:37 90° N 20:05:53 10° NNW
Cosmos 1190 Rocket 4.0 19:55:24 10° SSW 20:00:38 62° ESE 20:02:38 36° NE
FREGAT/IRIS 3.1 19:57:43 10° S 20:00:54 63° WSW 20:04:01 10° NNW
NOSS 3-1 (A) 3.4 19:54:40 10° SSW 20:01:05 63° SE 20:03:33 35° ENE
HJ-1C 3.2 20:00:29 10° SSE 20:03:53 79° ENE 20:04:04 75° NE
Cosmos 1092 Rocket 4.0 19:58:14 10° NNE 20:04:10 53° E 20:10:14 10° SSE
Cosmos 1833 Rocket 3.3 20:03:35 10° S 20:08:50 37° ESE 20:09:32 36° ESE
Cosmos 1271 Rocket 3.7 20:08:05 10° S 20:11:02 36° SE 20:11:02 36° SE
ATLAS 2AS CENTAUR R/B 3.5 20:09:31 10° SSW 20:14:43 28° SE 20:15:46 26° ESE
Lacrosse 5 3.9 20:11:53 10° SSW 20:14:58 16° SSE 20:16:13 14° SE
SJ-6B 4.1 20:12:44 10° S 20:16:20 39° WSW 20:19:56 10° NW
Cosmos 407 Rocket 3.4 20:15:49 10° SSW 20:21:05 79° ESE 20:22:12 56° NE
Meteor 1-4 Rocket 3.3 20:19:13 10° S 20:21:47 44° S 20:21:47 44° S
Cosmos 44 3.2 20:20:11 10° SSW 20:24:59 66° ESE 20:25:10 65° ESE
Cosmos 1743 Rocket 3.9 20:20:43 10° NNW 20:25:01 63° W 20:29:24 10° S
Cosmos 2228 Rocket 3.6 20:22:17 10° SSW 20:26:53 62° W 20:28:36 36° NNW
Spot 2 Rocket 3.7 20:27:27 10° S 20:32:35 70° WSW 20:37:38 10° NNW
deb Chang Zheng 4 3.9 20:33:06 56° NW 20:33:42 63° WNW 20:38:07 10° SSW
H-2A ROCKET BODY 4.2 19:35:13 10° WNW 20:34:54 54° N 20:39:16 40° NE
Cosmos 2195 Rocket 4.4 20:36:50 62° ENE 20:37:17 63° E 20:43:30 10° SSE
Cosmos 1674 3.8 20:39:54 43° SW 20:39:54 43° SW 20:42:53 10° S
Timation 1 Rocket 4.3 20:38:58 10° NNW 20:44:59 87° WSW 20:51:05 10° SSE
Cosmos 1908 4.4 20:41:26 10° SSW 20:44:37 44° WSW 20:44:37 44° WSW
Cosmos 1452 Rocket 3.6 20:40:04 10° NNW 20:45:19 74° WSW 20:50:40 10° SSE
Cosmos 2278 Rocket 4.3 20:41:24 10° WNW 20:46:08 27° WSW 20:50:56 10° S
Cosmos 676 Rocket 3.9 20:41:08 10° SSW 20:46:13 82° WSW 20:46:13 82° WSW
Cosmos 1140 Rocket 4.3 20:41:32 10° S 20:45:15 40° SSE 20:45:15 40° SSE
SL-19 R/B 4.4 20:46:23 60° N 20:47:37 84° WNW 20:53:57 10° SSW
Cosmos 1151 Rocket 4.1 20:44:21 10° S 20:47:19 41° S 20:47:19 41° S
Cosmos 1515 Rocket 4.4 20:46:38 10° SSW 20:50:37 49° WSW 20:50:37 49° WSW
Helios 1A 4.4 20:51:07 10° S 20:55:01 37° WSW 20:56:14 30° WNW
USA 234 4.5 20:58:11 10° SSE 21:04:11 39° SSW 21:10:11 10° W
Blok-ML 4.4 20:57:25 10° NW 21:05:12 67° WSW 21:05:20 67° SW
Cosmos 2082 Rocket 2.7 21:04:55 10° SSW 21:10:24 54° WNW 21:10:24 54° WNW
Lacrosse 5 rocket 3.6 21:11:28 10° WSW 21:13:19 23° WSW 21:13:19 23° WSW
CZ-4B R/B 4.4 21:17:47 48° SW 21:17:47 48° SW 21:21:47 10° SSW
ALOS 4.2 21:27:06 10° SSW 21:31:02 26° WSW 21:31:10 26° WSW
BREEZE-M DEB (TANK) 4.2 21:22:16 10° NW 21:43:51 79° SW 21:43:52 79° SW
Lacrosse 5 4.2 21:53:47 10° SW 21:55:25 20° SSW 21:55:25 20° SSW
ATLAS 2AS CENTAUR R/B 3.9 21:59:45 10° SW 22:03:13 34° WSW 22:03:13 34° WSW
